Tracking 19564 objects as of 19-Mar-2019
HD Live streaming from Space Station
objects crossing your sky now

IRIDIUM 44

Track IRIDIUM 44 now!
10-day predictions
IRIDIUM 44 is classified as:


NORAD ID: 25078
Int'l Code: 1997-077B
Perigee: 770.0 km
Apogee: 772.9 km
Inclination: 86.4 °
Period: 100.1 minutes
Semi major axis: 7142 km
RCS: 3.743 m2 (large)
Launch date: December 8, 1997
Source: United States (US)
Launch site: Taiyaun Space Center, China (TSC)
aabbcc
Your satellite tracking list
Your tracking list is empty




NASA's NSSDC Master Catalog

Two Line Element Set (TLE):
1 25078U 97077B   19076.57741182  .00000118  00000-0  32199-4 0  9998
2 25078  86.3917 102.9744 0002032  41.4034 318.7317 14.38239376115382
Source of the keplerian elements: AFSPC